Regional Weather Roundup
Issued by NWS Cleveland, OH

Home | Current Version | Previous Version | Text Only | Print | Product List | Glossary Off
Versions: 1 2 3 4 5 6 7 8 9 10 11 12 13 14 15 16 17 18 19 20 21 22 23 24 25 26 27 28 29 30 31 32 33 34 35 36 37 38 39 40 41 42 43 44 45 46 47 48 49 50

000
ASUS41 KCLE 271010
RWRCLE
OHIO REGIONAL WEATHER ROUNDUP
NATIONAL WEATHER SERVICE CLEVELAND, OH
600 AM EDT WED MAY 27 2015

NOTE: "FAIR" INDICATES FEW OR NO CLOUDS BELOW 12,000 FEET WITH NO
SIGNIFICANT WEATHER AND/OR OBSTRUCTIONS TO VISIBILITY.

OHZ001>008-015>018-024>027-034-035-043-044-271100-
   NORTHWEST OHIO

CITY           SKY/WX    TMP DP  RH WIND       PRES   REMARKS
DEFIANCE       CLEAR     66  60  81 SW10      29.98R
FINDLAY        FAIR      67  63  87 S13       29.99S
TOLEDO EXPRESS CLEAR     66  63  90 SW9       29.96R
TOLEDO EXEC    CLEAR     68  62  81 SW13      29.98R
LIMA           PTCLDY    65  62  90 SW10      30.02R
$$

OHZ009>014-019>023-028>033-038-089-271100-
   NORTHEAST OHIO

CITY           SKY/WX    TMP DP  RH WIND       PRES   REMARKS
CLE-HOPKINS    PTCLDY    67  64  90 S10       30.03R
CLE-LAKEFRONT  RAIN      69  63  81 S13       30.00R
CUY CO. ARPT   NOT AVBL
LORAIN-ELYRIA  PTCLDY    66  64  93 SW8       30.02R
ASHTABULA      MOCLDY    66  64  93 S8        30.03R
AKRON-CANTON   CLOUDY    67  63  87 SW10      30.06R
WOOSTER        CLEAR     65  63  93 S7        30.05S
MANSFIELD      MOCLDY    65  63  93 SW12      30.05R
YOUNGSTOWN     CLOUDY    65  63  93 SW9       30.06R
$$

OHZ042-051>053-060>062-070>072-077>081-271100-
  SOUTHWEST OHIO

CITY           SKY/WX    TMP DP  RH WIND       PRES   REMARKS
CINC-COVINGTON PTCLDY    65  64  97 S8        30.08R FOG
CINC-LUNKEN    PTCLDY    65  64  97 S7        30.08R
HAMILTON       PTCLDY    67  65  93 S3        30.08R
DAYTON         MOCLDY    67  64  90 SW10      30.07R
WRIGHT-PAT AFB CLOUDY    67  66  96 S7        30.06R
DAYTON GENERAL PTCLDY    66  65  96 SW8       30.06R
WILMINGTON     CLOUDY    66  63  90 SW10      30.08R
$$

OHZ036-037-039>041-045>050-054>059-063>069-073>076-082>088-271100-
  CENTRAL AND SOUTHEAST OHIO

CITY           SKY/WX    TMP DP  RH WIND       PRES   REMARKS
COLUMBUS       MOCLDY    66  64  94 S3        30.06R
OSU AIRPORT    MOCLDY    66  64  93 S7        30.06R
BOLTON FIELD   NOT AVBL
RICKENBACK AFB MOCLDY    65  64  97 S6        30.06S
NEWARK         CLOUDY    67  64  90 SW7       30.07R
MARION         PTCLDY    65  63  93 S9        30.05R FOG
LANCASTER      MOCLDY    67  64  90 S7        30.09R
ZANESVILLE     CLOUDY    66  63  90 SW5       30.09
NEW PHILLY     NOT AVBL
$$


USA.gov is the U.S. government's official web portal to all federal, state and local government web resources and services.